Starlink 32758

operational
NORAD ID: 62744 Int'l Des: 2025-014 Owner: SPXS Country: US Constellation: starlink
LEOCIRCULAR

关于 Starlink 32758

正在加载描述...

实时位置

正在加载3D地球...

即将过境

高度历史

Altitude vs Time

uPlot chart will show altitude changes over time

两行轨道根数

1 62744U 25014K 26095.46883522 .00028685 00000-0 10481-2 0 9990
2 62744 43.0051 6.5565 0001025 283.9421 76.1316 15.27572882 67310
Epoch: Apr 5, 2026 • Age: 10 hours

当前状态

高度 484.7 km
速度 7.63 km/s
星下点 32.93°N, 12°W
发射日期 Jan 21, 2025
运行时间 1.2 years
类型 internet

技术详情

分类 Payload
质量 730.00 kg
干质量 700.00 kg
总质量 730.00 kg
长度 0.30 m
直径 4.10 m
跨度 29.00 m
形状 Box + pan
制造商 SPXS
平台类型 Starlink V2M
阶段状态 In Orbit
所有者/国家 SPXS/US

大型星座

Loading constellations...